Simultaneous Nadir Overpasses (SNOs) Predictions

Prediction of SNOs between GOES-16 and NOAA-19 Satellite Orbit:

Table of predicted SNOs for the next 14.0 days since TLE Epoch: 2/4/2023
Index Date Time (GOES-16) GOES-16 Lat,Lon NOAA-19 Lat,Lon Distance(km) Time Diff (sec)
1 02/04/2023 13:32:14 -0.01, -75.20 0.61, -77.83 301.04 80
2 02/05/2023 13:17:38 -0.00, -75.20 -0.07, -74.93 31.84 80
3 02/06/2023 13:05:41 0.00, -75.21 -0.76, -72.02 364.94 80
4 02/09/2023 01:28:40 -0.02, -75.21 -0.38, -76.83 184.70 80
5 02/10/2023 01:14:03 -0.01, -75.23 0.30, -73.93 148.81 80
6 02/11/2023 01:02:07 -0.01, -75.24 0.99, -71.02 482.37 80
7 02/12/2023 13:37:03 0.02, -75.28 0.82, -78.75 396.32 80
8 02/13/2023 13:25:07 0.01, -75.29 0.12, -75.84 62.63 80
9 02/14/2023 13:10:29 0.01, -75.30 -0.53, -72.93 271.19 80
10 02/17/2023 01:33:29 -0.02, -75.32 -0.59, -77.75 277.64 80
11 02/18/2023 01:18:53 -0.02, -75.33 0.11, -74.84 56.28 80
